This is the latest recevied weather packets stored in our database for station/object EB1BCG-1. If no packets are shown the sender has not sent any weather packets the latest 10 day(s).
| Time | Temp. | Humidity | Pressure | Rain* | Wind** | Luminosity | Snow |
|---|---|---|---|---|---|---|---|
| 1777896392 | 8.33° C | 91% | 1012.2 hPa | 2.54 mm | 0 m/s | - | - |
| 1777895788 | 7.78° C | 78% | 1012.5 hPa | 2.54 mm | 0 m/s | - | - |
| 1777895248 | 7.78° C | 72% | 1012.8 hPa | 0.51 mm | 0 m/s | - | - |
| 1777894708 | 10° C | 72% | 1012.4 hPa | 0 mm | 0 m/s | - | - |
| 1777894097 | 12.22° C | 72% | 1011.8 hPa | 0 mm | 0 m/s | - | - |
| 1777893491 | 12.78° C | 70% | 1011.5 hPa | 0 mm | 0 m/s | - | - |
| 1777892888 | 12.22° C | 70% | 1011.4 hPa | 0 mm | 0 m/s | - | - |
| 1777892279 | 13.33° C | 63% | 1011.6 hPa | 0 mm | 0 m/s | - | - |
| 1777891672 | 13.89° C | 58% | 1011.6 hPa | 0 mm | 0 m/s | - | - |
| 1777891068 | 14.44° C | 60% | 1011.5 hPa | 0 mm | 0 m/s | - | - |
| 1777890460 | 16.11° C | 62% | 1011.3 hPa | 0 mm | 0 m/s | - | - |
| 1777889853 | 16.11° C | 63% | 1011.4 hPa | 0.51 mm | 0 m/s | - | - |
| 1777889253 | 15.56° C | 56% | 1011.4 hPa | 0.51 mm | 0 m/s | - | - |
| 1777888641 | 16.11° C | 62% | 1011.4 hPa | 0.51 mm | 0 m/s | - | - |
| 1777888033 | 16.11° C | 65% | 1011.3 hPa | 0.51 mm | 0 m/s | - | - |
| 1777887428 | 15° C | 68% | 1011.5 hPa | 0.51 mm | 0 m/s | - | - |
| 1777886824 | 15.56° C | 72% | 1011.4 hPa | 0.51 mm | 0 m/s | - | - |
| 1777886234 | 13.89° C | 72% | 1011.7 hPa | 0 mm | 0 m/s | - | - |
| 1777885021 | 13.89° C | 72% | 1011.7 hPa | 0 mm | 0 m/s | - | - |
| 1777883808 | 12.78° C | 84% | 1011.7 hPa | 0 mm | 0 m/s | - | - |
| 1777883200 | 12.22° C | 90% | 1011.6 hPa | 0 mm | 0 m/s | - | - |
| 1777882592 | 11.11° C | 95% | 1011.9 hPa | 0 mm | 0 m/s | - | - |
| 1777881988 | 11.11° C | 95% | 1011.9 hPa | 0 mm | 0 m/s | - | - |
| 1777881377 | 10° C | 98% | 1011.8 hPa | 0 mm | 0 m/s | - | - |
| 1777880770 | 10° C | 99% | 1011.9 hPa | 0 mm | 0 m/s | - | - |
* Rain latest hour (hover to see other rain measurements)
** Current wind speed in m/s (hover to see current wind gust speed)